Zurück zum Katalog

STARLINK-34486

AktivKommunikationVLEO
NORAD 64597·PAYLOAD·🇺🇸 United States

Gestartet Jun 25, 2025 von Cape Canaveral Space Force Station

Loading…

Nächste Überflüge (nächste 24 Stunden)

TLE

AktuellSource: CelesTrak SupGP

Epoche: Sep 14, 2026, 15:06 UTC

1 64597C 25137D   26257.62965278  .00067525  00000+0  19953-2 0  2576
2 64597  53.1580 176.7952 0000885  85.1323 294.8574 15.34353110    11

Verfolge STARLINK-34486 in Echtzeit mit AllMySat

Download on the App Store